Location: Mercogliano
(40.9167°N, 14.7333°E)
Time: 07:36:01
(UTC+00:00)

Iridium 4 Rocket - Pass Details

Date: 18 September 2020
Orbit: 584 x 905 km, 86.9° (Epoch: 26 October)

Event Time Altitude Azimuth Distance (km) Brightness Sun altitude
Rises 17:39:01 0° 178° (S) 3,012 6.5 -7.3°
Reaches altitude 10° 17:41:10 10° 177° (S) 2,147 5.7 -7.7°
Maximum altitude 17:45:57 83° 91° (E) 755 3.4 -8.6°
Drops below altitude 10° 17:51:16 10° 4° (N) 2,375 6.1 -9.6°
Sets 17:53:45 0° 3° (N) 3,359 6.9 -10.1°
